R1ZAA-14 Weather Reports


time (UTC)temp
F
wind
direction
speed
knots
gust
knots
rain 1hr
in
rain 24hr
in
rain mn
in
humidity
%
barometer
mb
20260503200905 35 0.0 0.0 0.00 0.00 0.00 986.6
20260503195903 35 0.0 0.0 0.00 0.00 0.00 986.6
20260503194901 35 0.0 0.0 0.00 0.00 0.00 986.6
20260503193859 36 0.0 0.0 0.00 0.00 0.00 986.6
20260503192856 37 0.0 0.0 0.00 0.00 0.00 986.4
20260503191854 37 0.0 0.0 0.00 0.00 0.00 986.5
20260503190852 37 0.0 0.0 0.00 0.00 0.00 986.5
20260503185850 38 0.0 0.0 0.00 0.00 0.00 986.4
20260503184847 40 0.0 0.0 0.00 0.00 0.00 986.3
20260503183845 41 0.0 0.0 0.00 0.00 0.00 986.2
20260503182844 41 0.0 0.0 0.00 0.00 0.00 986.2
20260503181841 40 0.0 0.0 0.00 0.00 0.00 986.3
20260503180838 42 0.0 0.0 0.00 0.00 0.00 986.1
20260503175836 43 0.0 0.0 0.00 0.00 0.00 986.1
20260503174834 41 0.0 0.0 0.00 0.00 0.00 986.0
20260503173832 41 0.0 0.0 0.00 0.00 0.00 985.8
20260503172829 46 0.0 0.0 0.00 0.00 0.00 985.9
20260503171827 48 0.0 0.0 0.00 0.00 0.00 986.1
20260503170825 48 0.0 0.0 0.00 0.00 0.00 985.5
20260503150758 51 0.0 0.0 0.00 0.00 0.00 985.2
20260503130732 49 0.0 0.0 0.00 0.00 0.00 984.4
20260503110705 45 0.0 0.0 0.00 0.00 0.00 983.9
20260503081627 36 0.0 0.0 0.00 0.00 0.00 982.9
20260503080624 36 0.0 0.0 0.00 0.00 0.00 982.9
20260503072615 35 0.0 0.0 0.00 0.00 0.00 982.7
20260503071613 35 0.0 0.0 0.00 0.00 0.00 982.8
20260503070611 35 0.0 0.0 0.00 0.00 0.00 982.6
20260503054553 33 0.0 0.0 0.00 0.00 0.00 982.6
20260503053551 33 0.0 0.0 0.00 0.00 0.00 982.5
20260503052548 33 0.0 0.0 0.00 0.00 0.00 982.5
20260503051546 33 0.0 0.0 0.00 0.00 0.00 982.2
20260503050544 33 0.0 0.0 0.00 0.00 0.00 982.2
20260503045542 33 0.0 0.0 0.00 0.00 0.00 982.3
20260503044539 33 0.0 0.0 0.00 0.00 0.00 982.4
20260503043537 32 0.0 0.0 0.00 0.00 0.00 982.3
20260503042535 32 0.0 0.0 0.00 0.00 0.00 982.3
20260503041533 32 0.0 0.0 0.00 0.00 0.00 982.4
20260503040530 32 0.0 0.0 0.00 0.00 0.00 982.3
20260503035528 32 0.0 0.0 0.00 0.00 0.00 982.3
20260503034526 32 0.0 0.0 0.00 0.00 0.00 982.3
20260503033524 32 0.0 0.0 0.00 0.00 0.00 982.2
20260503032522 32 0.0 0.0 0.00 0.00 0.00 982.2
20260503031519 32 0.0 0.0 0.00 0.00 0.00 982.2
20260503030517 31 0.0 0.0 0.00 0.00 0.00 982.2
20260503025515 31 0.0 0.0 0.00 0.00 0.00 982.3
20260503024513 31 0.0 0.0 0.00 0.00 0.00 982.3
20260503023510 31 0.0 0.0 0.00 0.00 0.00 982.3
20260503022508 31 0.0 0.0 0.00 0.00 0.00 982.1
20260503021506 31 0.0 0.0 0.00 0.00 0.00 982.2
20260503020504 31 0.0 0.0 0.00 0.00 0.00 982.1
20260503015501 31 0.0 0.0 0.00 0.00 0.00 982.1
20260503014459 31 0.0 0.0 0.00 0.00 0.00 982.1
20260503013457 31 0.0 0.0 0.00 0.00 0.00 982.2
20260503012455 31 0.0 0.0 0.00 0.00 0.00 982.2
20260503011453 32 0.0 0.0 0.00 0.00 0.00 982.1
20260503010450 32 0.0 0.0 0.00 0.00 0.00 982.1
20260503005448 32 0.0 0.0 0.00 0.00 0.00 981.9
20260503004446 32 0.0 0.0 0.00 0.00 0.00 982.3
20260503003444 32 0.0 0.0 0.00 0.00 0.00 982.0
20260503002441 32 0.0 0.0 0.00 0.00 0.00 982.0
20260503001439 33 0.0 0.0 0.00 0.00 0.00 982.1
20260503000437 33 0.0 0.0 0.00 0.00 0.00 982.0
20260502235435 33 0.0 0.0 0.00 0.00 0.00 982.1
20260502234433 33 0.0 0.0 0.00 0.00 0.00 982.4
20260502233430 33 0.0 0.0 0.00 0.00 0.00 982.2
20260502232428 34 0.0 0.0 0.00 0.00 0.00 982.0
20260502231426 34 0.0 0.0 0.00 0.00 0.00 981.9
20260502230424 34 0.0 0.0 0.00 0.00 0.00 981.8
20260502225421 34 0.0 0.0 0.00 0.00 0.00 982.2
20260502224419 35 0.0 0.0 0.00 0.00 0.00 981.8
20260502223417 35 0.0 0.0 0.00 0.00 0.00 981.6
20260502222415 35 0.0 0.0 0.00 0.00 0.00 981.5
20260502221413 35 0.0 0.0 0.00 0.00 0.00 981.4
20260502220410 35 0.0 0.0 0.00 0.00 0.00 981.3
20260502215408 35 0.0 0.0 0.00 0.00 0.00 981.2
20260502214406 35 0.0 0.0 0.00 0.00 0.00 981.2
20260502213404 35 0.0 0.0 0.00 0.00 0.00 981.3
20260502212401 35 0.0 0.0 0.00 0.00 0.00 980.8
20260502211359 36 0.0 0.0 0.00 0.00 0.00 980.8
20260502210357 36 0.0 0.0 0.00 0.00 0.00 980.8
20260502205355 36 0.0 0.0 0.00 0.00 0.00 980.9
20260502204352 37 0.0 0.0 0.00 0.00 0.00 980.8
20260502203350 37 0.0 0.0 0.00 0.00 0.00 981.0
20260502202348 37 0.0 0.0 0.00 0.00 0.00 981.2
20260502201346 37 0.0 0.0 0.00 0.00 0.00 980.7